COSMOS 967

Satellite information

Favourite Embed

Satellite Type and Status

PAYLOADIN ORBIT

Key statistics

Satellite COSMOS 967 at a glance.

Uptime

17532

Days in orbit

Revolutions

≈ 13.8

Per day

Orbit

LEO

Low Earth Orbit

Inclination

65.8

Latest

Satellite identification and parameters

Extended collection of information and parameters for COSMOS 967.

Object identification

Identified? True

Debris? False

Object name: COSMOS 967

International designator: 1977-116A

Object number (NORAD): 10512

Object ID (CCSDS): 10512

Country: COMMONWEALTH OF INDEPENDENT STATES (CIS)

Current information (Y/N): Y

RCS size: LARGE

Orbital parameters

Period: 104.722 minutes

Inclination: 65.8336 deg

SMA: 7359.557 km

Apoapsis: 1000.93 km

Periapsis: 961.914 km

RAAN: 207.1639 deg

Eccentricy: 0.00265068

Argument of periapsis: 311.7865 deg

Mean anomaly: 220.6432 deg

Mean motion: 13.7507143 rev/day

Mean motion (dot): -0.00000063 rev/day2

B* drag term: 0.000018206531 1/REarth

Two-line elements (TLE)

Creation date: Dec. 12, 2025, 10:14 a.m.

Reference frame: TEME

Reference center: EARTH

Epoch: Dec. 12, 2025, 2:51 a.m. UTC

TLE line 0: 0 COSMOS 967

TLE line 1: 1 10512U 77116A 25346.11900227 -.00000063 00000-0 18207-4 0 9995

TLE line 2: 2 10512 65.8336 207.1639 0026507 311.7865 220.6432 13.75071430409644

Live tracking on map

Real-time ground track for satellite COSMOS 967.

In-orbit conjunctions

A list of the most updated potential collisions computed for object COSMOS 967.

Target Orbit TCA Probability of collision Miss distance Type
FENGYUN 1C DEB SSO 2025-05-23 14:49:19 0.0001221538 608.0 (m) DEBRIS
SL-8 DEB LEO 2024-11-11 06:01:57 0.0001406005 174.0 (m) DEBRIS

Associated space launch

ASAT target satellite

COSMOS 967 was lifted into orbit during the mission ‘Kosmos-3M | DS-P1-M 13’, on board a Kosmos-3M space rocket.

The launch took place on Dec. 13, 1977, 3:53 p.m. from 132/1 (132L).

For more information about the launch, click the button.

Launch to space Kosmos-3M | DS-P1-M 13
Kosmos-3M | DS-P1-M 13

Agency: N/A

Status: Launch Successful

Launch date: Dec. 13, 1977, 3:53 p.m. UTC

Rocket: Kosmos-3M

Launch pad: 132/1 (132L)

Location: Plesetsk Cosmodrome, Russian Federation

...

Latest news about this satellite

There are no fresh news available about this satellite. Check back as we update our databases every day.


Newsletter sign-up

Weekly statistics, charts and insights to help you stay on top of the space industry.